This demonstration page uses our WeatherBlox Daily Observations layout. Learn more.

Left ArrowRight Arrow

Hourly Observations for July 25, 2016

Temp ( °F °C ) Dew Point ( °F °C ) Humidity (%) Winds ( mph kmh ) Pressure ( in mb ) Visibility ( mi km ) Precip ( " mm )
12:53 am 00:53 Clear 68 20 63 17.2 84 84 NE 6 9 30.06 1018 10 16 0.00 0.00
1:53 am 01:53 Clear 67 19.4 63 17.2 87 87 NE 6 9 30.04 1017 10 16 0.00 0.00
2:53 am 02:53 Clear 67 19.4 63 17.2 87 87 ENE 7 11 30.04 1017 10 16 0.00 0.00
3:53 am 03:53 Clear 67 19.4 63 17.2 87 87 ENE 5 7 30.06 1018 10 16 0.00 0.00
4:53 am 04:53 Clear 66 18.9 62 16.7 87 87 ENE 8 13 30.06 1018 10 16 0.00 0.00
5:53 am 05:53 Clear 66 18.9 62 16.7 87 87 ENE 6 9 30.07 1018 10 16 0.00 0.00
6:53 am 06:53 Mostly Cloudy 67 19.4 62 16.7 84 84 E 6 9 30.10 1019 10 16 0.00 0.00
7:53 am 07:53 Mostly Sunny 69 20.6 62 16.7 78 78 ESE 9 15 30.13 1020 10 16 0.00 0.00
8:53 am 08:53 Sunny 71 21.7 62 16.7 73 73 ESE 9 15 30.13 1020 10 16 0.00 0.00
9:53 am 09:53 Sunny 73 22.8 63 17.2 71 71 ESE 8 13 30.14 1021 10 16 0.00 0.00
10:53 am 10:53 Sunny 77 25 64 17.8 64 64 SE 12 19 30.13 1020 10 16 0.00 0.00
11:53 am 11:53 Sunny 79 26.1 65 18.3 62 62 SE 7 11 30.12 1020 10 16 0.00 0.00
12:53 pm 12:53 Sunny 83 28.3 64 17.8 53 53 SSE 9 15 30.10 1019 10 16 0.00 0.00
1:53 pm 13:53 Sunny 84 28.9 63 17.2 49 49 SE 10 17 30.09 1019 10 16 0.00 0.00
2:53 pm 14:53 Sunny 85 29.4 62 16.7 46 46 SSE 9 15 30.08 1019 10 16 0.00 0.00
3:53 pm 15:53 Sunny 87 30.6 57 13.9 36 36 SE 12 19 30.05 1018 10 16 0.00 0.00
4:53 pm 16:53 Sunny 87 30.6 55 12.8 34 34 SSE 10 17 30.03 1017 10 16 0.00 0.00
5:53 pm 17:53 Sunny 87 30.6 49 9.4 27 27 SE 8 13 30.01 1016 10 16 0.00 0.00
6:53 pm 18:53 Sunny 84 28.9 57 13.9 40 40 E 10 17 30.02 1017 10 16 0.00 0.00
7:53 pm 19:53 Sunny 82 27.8 62 16.7 51 51 E 9 15 30.03 1017 10 16 0.00 0.00
8:53 pm 20:53 Sunny 77 25 63 17.2 62 62 E 5 7 30.05 1018 10 16 0.00 0.00
9:53 pm 21:53 Clear 76 24.4 63 17.2 64 64 E 7 11 30.06 1018 10 16 0.00 0.00
10:53 pm 22:53 Clear 76 24.4 60 15.6 58 58 ESE 12 19 30.06 1018 10 16 0.00 0.00
11:53 pm 23:53 Clear 73 22.8 61 16.1 66 66 SE 10 17 30.09 1019 10 16 0.00 0.00

Powered by AerisWeather